owner,sensor,date,latitude,longitude,sea_surface_height_above_sea_level,qcFlag 
TCOON,ioos:station:TCOON:003:1,2017-09-01T00:18:00Z,26.8015,-97.4706,1.263,1111122 
TCOON,ioos:station:TCOON:003:1,2017-09-01T01:18:00Z,26.8015,-97.4706,1.264,1111122 
TCOON,ioos:station:TCOON:003:1,2017-09-01T02:18:00Z,26.8015,-97.4706,1.257,1111122 
TCOON,ioos:station:TCOON:003:1,2017-09-01T03:18:00Z,26.8015,-97.4706,1.228,1111122 
TCOON,ioos:station:TCOON:003:1,2017-09-01T04:18:00Z,26.8015,-97.4706,1.2,1111122 
TCOON,ioos:station:TCOON:003:1,2017-09-01T05:18:00Z,26.8015,-97.4706,1.177,1111122 
TCOON,ioos:station:TCOON:003:1,2017-09-01T06:18:00Z,26.8015,-97.4706,1.144,1111122 
TCOON,ioos:station:TCOON:003:1,2017-09-01T07:18:00Z,26.8015,-97.4706,1.138,1111122 
TCOON,ioos:station:TCOON:003:1,2017-09-01T08:18:00Z,26.8015,-97.4706,1.13,1111122 
TCOON,ioos:station:TCOON:003:1,2017-09-01T09:18:00Z,26.8015,-97.4706,1.124,1111122 
TCOON,ioos:station:TCOON:003:1,2017-09-01T10:18:00Z,26.8015,-97.4706,1.124,1111122 
TCOON,ioos:station:TCOON:003:1,2017-09-01T11:18:00Z,26.8015,-97.4706,1.129,1111122 
TCOON,ioos:station:TCOON:003:1,2017-09-01T12:18:00Z,26.8015,-97.4706,1.131,1111122 
TCOON,ioos:station:TCOON:003:1,2017-09-01T13:18:00Z,26.8015,-97.4706,1.137,1111122 
TCOON,ioos:station:TCOON:003:1,2017-09-01T14:18:00Z,26.8015,-97.4706,1.147,1111122 
TCOON,ioos:station:TCOON:003:1,2017-09-01T15:18:00Z,26.8015,-97.4706,1.151,1111122 
TCOON,ioos:station:TCOON:003:1,2017-09-01T16:18:00Z,26.8015,-97.4706,1.156,1111122 
TCOON,ioos:station:TCOON:003:1,2017-09-01T17:18:00Z,26.8015,-97.4706,1.164,1111122 
TCOON,ioos:station:TCOON:003:1,2017-09-01T18:18:00Z,26.8015,-97.4706,1.171,1111122 
TCOON,ioos:station:TCOON:003:1,2017-09-01T19:18:00Z,26.8015,-97.4706,1.173,1111122 
TCOON,ioos:station:TCOON:003:1,2017-09-01T20:18:00Z,26.8015,-97.4706,1.183,1111122 
TCOON,ioos:station:TCOON:003:1,2017-09-01T21:18:00Z,26.8015,-97.4706,1.19,1111122 
TCOON,ioos:station:TCOON:003:1,2017-09-01T22:18:00Z,26.8015,-97.4706,1.199,1111122 
TCOON,ioos:station:TCOON:003:1,2017-09-02T00:18:00Z,26.8015,-97.4706,1.177,1111122 
TCOON,ioos:station:TCOON:003:1,2017-09-02T01:18:00Z,26.8015,-97.4706,1.17,1111122 
TCOON,ioos:station:TCOON:003:1,2017-09-02T02:18:00Z,26.8015,-97.4706,1.161,1111122 
TCOON,ioos:station:TCOON:003:1,2017-09-02T03:18:00Z,26.8015,-97.4706,1.143,1111122 
TCOON,ioos:station:TCOON:003:1,2017-09-02T04:18:00Z,26.8015,-97.4706,1.126,1111122 
TCOON,ioos:station:TCOON:003:1,2017-09-02T05:18:00Z,26.8015,-97.4706,1.113,1111122 
TCOON,ioos:station:TCOON:003:1,2017-09-02T06:18:00Z,26.8015,-97.4706,1.111,1111122 
TCOON,ioos:station:TCOON:003:1,2017-09-02T07:18:00Z,26.8015,-97.4706,1.124,1111122 
TCOON,ioos:station:TCOON:003:1,2017-09-02T08:18:00Z,26.8015,-97.4706,1.13,1111122 
TCOON,ioos:station:TCOON:003:1,2017-09-02T09:18:00Z,26.8015,-97.4706,1.127,1111122 
TCOON,ioos:station:TCOON:003:1,2017-09-02T10:18:00Z,26.8015,-97.4706,1.127,1111122 
TCOON,ioos:station:TCOON:003:1,2017-09-02T11:18:00Z,26.8015,-97.4706,1.129,1111122 
TCOON,ioos:station:TCOON:003:1,2017-09-02T12:18:00Z,26.8015,-97.4706,1.119,1111122 
TCOON,ioos:station:TCOON:003:1,2017-09-02T13:18:00Z,26.8015,-97.4706,1.12,1111122 
TCOON,ioos:station:TCOON:003:1,2017-09-02T14:18:00Z,26.8015,-97.4706,1.113,1111122 
TCOON,ioos:station:TCOON:003:1,2017-09-02T15:18:00Z,26.8015,-97.4706,1.133,1111122 
TCOON,ioos:station:TCOON:003:1,2017-09-02T16:18:00Z,26.8015,-97.4706,1.147,1111122 
TCOON,ioos:station:TCOON:003:1,2017-09-02T17:18:00Z,26.8015,-97.4706,1.152,1111122 
TCOON,ioos:station:TCOON:003:1,2017-09-02T18:18:00Z,26.8015,-97.4706,1.152,1111122 
TCOON,ioos:station:TCOON:003:1,2017-09-02T19:18:00Z,26.8015,-97.4706,1.139,1111122 
TCOON,ioos:station:TCOON:003:1,2017-09-02T20:18:00Z,26.8015,-97.4706,1.138,1111122 
TCOON,ioos:station:TCOON:003:1,2017-09-02T21:18:00Z,26.8015,-97.4706,1.138,1111122 
TCOON,ioos:station:TCOON:003:1,2017-09-02T22:18:00Z,26.8015,-97.4706,1.137,1111122 
TCOON,ioos:station:TCOON:003:1,2017-09-02T23:18:00Z,26.8015,-97.4706,1.14,1111122 
TCOON,ioos:station:TCOON:003:1,2017-09-03T00:18:00Z,26.8015,-97.4706,1.145,1111122 
TCOON,ioos:station:TCOON:003:1,2017-09-03T01:18:00Z,26.8015,-97.4706,1.147,1111122 
TCOON,ioos:station:TCOON:003:1,2017-09-03T02:18:00Z,26.8015,-97.4706,1.139,1111122 
TCOON,ioos:station:TCOON:003:1,2017-09-03T03:18:00Z,26.8015,-97.4706,1.129,1111122 
TCOON,ioos:station:TCOON:003:1,2017-09-03T04:18:00Z,26.8015,-97.4706,1.119,1111122 
TCOON,ioos:station:TCOON:003:1,2017-09-03T05:18:00Z,26.8015,-97.4706,1.12,1111122 
TCOON,ioos:station:TCOON:003:1,2017-09-03T06:18:00Z,26.8015,-97.4706,1.124,1111122 
TCOON,ioos:station:TCOON:003:1,2017-09-03T07:18:00Z,26.8015,-97.4706,1.123,1111122 
TCOON,ioos:station:TCOON:003:1,2017-09-03T08:18:00Z,26.8015,-97.4706,1.123,1111122 
TCOON,ioos:station:TCOON:003:1,2017-09-03T09:18:00Z,26.8015,-97.4706,1.128,1111122 
TCOON,ioos:station:TCOON:003:1,2017-09-03T10:18:00Z,26.8015,-97.4706,1.131,1111122 
TCOON,ioos:station:TCOON:003:1,2017-09-03T11:18:00Z,26.8015,-97.4706,1.133,1111122 
TCOON,ioos:station:TCOON:003:1,2017-09-03T12:18:00Z,26.8015,-97.4706,1.13,1111122 
TCOON,ioos:station:TCOON:003:1,2017-09-03T13:18:00Z,26.8015,-97.4706,1.128,1111122 
TCOON,ioos:station:TCOON:003:1,2017-09-03T14:18:00Z,26.8015,-97.4706,1.126,1111122 
TCOON,ioos:station:TCOON:003:1,2017-09-03T15:18:00Z,26.8015,-97.4706,1.13,1111122 
TCOON,ioos:station:TCOON:003:1,2017-09-03T16:18:00Z,26.8015,-97.4706,1.135,1111122 
TCOON,ioos:station:TCOON:003:1,2017-09-03T17:18:00Z,26.8015,-97.4706,1.142,1111122 
TCOON,ioos:station:TCOON:003:1,2017-09-03T18:18:00Z,26.8015,-97.4706,1.139,1111122 
TCOON,ioos:station:TCOON:003:1,2017-09-03T19:18:00Z,26.8015,-97.4706,1.127,1111122 
TCOON,ioos:station:TCOON:003:1,2017-09-03T20:18:00Z,26.8015,-97.4706,1.132,1111122 
TCOON,ioos:station:TCOON:003:1,2017-09-03T21:18:00Z,26.8015,-97.4706,1.144,1111122 
TCOON,ioos:station:TCOON:003:1,2017-09-03T22:18:00Z,26.8015,-97.4706,1.144,1111122 
TCOON,ioos:station:TCOON:003:1,2017-09-03T23:18:00Z,26.8015,-97.4706,1.155,1111122 
TCOON,ioos:station:TCOON:003:1,2017-09-04T00:18:00Z,26.8015,-97.4706,1.163,1111122 
TCOON,ioos:station:TCOON:003:1,2017-09-04T01:18:00Z,26.8015,-97.4706,1.16,1111122 
TCOON,ioos:station:TCOON:003:1,2017-09-04T02:18:00Z,26.8015,-97.4706,1.15,1111122 
TCOON,ioos:station:TCOON:003:1,2017-09-04T03:18:00Z,26.8015,-97.4706,1.152,1111122 
TCOON,ioos:station:TCOON:003:1,2017-09-04T04:18:00Z,26.8015,-97.4706,1.145,1111122 
TCOON,ioos:station:TCOON:003:1,2017-09-04T05:18:00Z,26.8015,-97.4706,1.134,1111122 
TCOON,ioos:station:TCOON:003:1,2017-09-04T06:18:00Z,26.8015,-97.4706,1.119,1111122 
TCOON,ioos:station:TCOON:003:1,2017-09-04T07:18:00Z,26.8015,-97.4706,1.112,1111122 
TCOON,ioos:station:TCOON:003:1,2017-09-04T08:18:00Z,26.8015,-97.4706,1.112,1111122 
TCOON,ioos:station:TCOON:003:1,2017-09-04T09:18:00Z,26.8015,-97.4706,1.115,1111122 
TCOON,ioos:station:TCOON:003:1,2017-09-04T10:18:00Z,26.8015,-97.4706,1.124,1111122 
TCOON,ioos:station:TCOON:003:1,2017-09-04T11:18:00Z,26.8015,-97.4706,1.125,1111122 
TCOON,ioos:station:TCOON:003:1,2017-09-04T12:18:00Z,26.8015,-97.4706,1.123,1111122 
TCOON,ioos:station:TCOON:003:1,2017-09-04T13:18:00Z,26.8015,-97.4706,1.124,1111122 
TCOON,ioos:station:TCOON:003:1,2017-09-04T14:18:00Z,26.8015,-97.4706,1.131,1111122 
TCOON,ioos:station:TCOON:003:1,2017-09-04T15:18:00Z,26.8015,-97.4706,1.147,1111122 
TCOON,ioos:station:TCOON:003:1,2017-09-04T16:18:00Z,26.8015,-97.4706,1.16,1111122 
TCOON,ioos:station:TCOON:003:1,2017-09-04T17:18:00Z,26.8015,-97.4706,1.159,1111122 
TCOON,ioos:station:TCOON:003:1,2017-09-04T18:18:00Z,26.8015,-97.4706,1.173,1111122 
TCOON,ioos:station:TCOON:003:1,2017-09-04T19:18:00Z,26.8015,-97.4706,1.183,1111122 
TCOON,ioos:station:TCOON:003:1,2017-09-04T20:18:00Z,26.8015,-97.4706,1.166,1111122 
TCOON,ioos:station:TCOON:003:1,2017-09-04T21:18:00Z,26.8015,-97.4706,1.167,1111122 
TCOON,ioos:station:TCOON:003:1,2017-09-04T22:18:00Z,26.8015,-97.4706,1.189,1111122 
TCOON,ioos:station:TCOON:003:1,2017-09-05T00:18:00Z,26.8015,-97.4706,1.203,1111122 
TCOON,ioos:station:TCOON:003:1,2017-09-05T01:18:00Z,26.8015,-97.4706,1.162,1111122 
TCOON,ioos:station:TCOON:003:1,2017-09-05T02:18:00Z,26.8015,-97.4706,1.135,1111122 
TCOON,ioos:station:TCOON:003:1,2017-09-05T03:18:00Z,26.8015,-97.4706,1.134,1111122 
TCOON,ioos:station:TCOON:003:1,2017-09-05T04:18:00Z,26.8015,-97.4706,1.145,1111122 
TCOON,ioos:station:TCOON:003:1,2017-09-05T05:18:00Z,26.8015,-97.4706,1.157,1111122 
TCOON,ioos:station:TCOON:003:1,2017-09-05T06:18:00Z,26.8015,-97.4706,1.157,1111122 
TCOON,ioos:station:TCOON:003:1,2017-09-05T07:18:00Z,26.8015,-97.4706,1.165,1111122 
TCOON,ioos:station:TCOON:003:1,2017-09-05T08:18:00Z,26.8015,-97.4706,1.151,1111122 
TCOON,ioos:station:TCOON:003:1,2017-09-05T09:18:00Z,26.8015,-97.4706,1.139,1111122 
TCOON,ioos:station:TCOON:003:1,2017-09-05T10:18:00Z,26.8015,-97.4706,1.152,1111122 
TCOON,ioos:station:TCOON:003:1,2017-09-05T11:18:00Z,26.8015,-97.4706,1.198,1111122 
TCOON,ioos:station:TCOON:003:1,2017-09-05T12:18:00Z,26.8015,-97.4706,1.187,1111122 
TCOON,ioos:station:TCOON:003:1,2017-09-05T13:18:00Z,26.8015,-97.4706,1.153,1111122 
TCOON,ioos:station:TCOON:003:1,2017-09-05T14:18:00Z,26.8015,-97.4706,1.142,1111122 
TCOON,ioos:station:TCOON:003:1,2017-09-05T15:30:00Z,26.8015,-97.4706,1.18,1111122 
TCOON,ioos:station:TCOON:003:1,2017-09-05T16:18:00Z,26.8015,-97.4706,1.207,1111122 
TCOON,ioos:station:TCOON:003:1,2017-09-05T17:24:00Z,26.8015,-97.4706,1.185,1111122 
TCOON,ioos:station:TCOON:003:1,2017-09-05T18:18:00Z,26.8015,-97.4706,1.183,1111122 
TCOON,ioos:station:TCOON:003:1,2017-09-05T19:18:00Z,26.8015,-97.4706,1.17,1111122 
TCOON,ioos:station:TCOON:003:1,2017-09-05T20:18:00Z,26.8015,-97.4706,1.161,1111122 
TCOON,ioos:station:TCOON:003:1,2017-09-05T21:18:00Z,26.8015,-97.4706,1.129,1111122 
TCOON,ioos:station:TCOON:003:1,2017-09-05T22:18:00Z,26.8015,-97.4706,1.118,1111122 
TCOON,ioos:station:TCOON:003:1,2017-09-05T23:18:00Z,26.8015,-97.4706,1.142,1111122 
TCOON,ioos:station:TCOON:003:1,2017-09-06T00:18:00Z,26.8015,-97.4706,1.18,1111122 
TCOON,ioos:station:TCOON:003:1,2017-09-06T01:18:00Z,26.8015,-97.4706,1.202,1111122 
TCOON,ioos:station:TCOON:003:1,2017-09-07T14:36:00Z,26.8015,-97.4706,1.162,1111122 
TCOON,ioos:station:TCOON:003:1,2017-09-07T15:18:00Z,26.8015,-97.4706,1.165,1111122 
TCOON,ioos:station:TCOON:003:1,2017-09-07T16:18:00Z,26.8015,-97.4706,1.162,1111122 
TCOON,ioos:station:TCOON:003:1,2017-09-07T17:18:00Z,26.8015,-97.4706,1.166,1111122 
TCOON,ioos:station:TCOON:003:1,2017-09-07T18:18:00Z,26.8015,-97.4706,1.174,1111122 
TCOON,ioos:station:TCOON:003:1,2017-09-07T19:18:00Z,26.8015,-97.4706,1.167,1111122 
TCOON,ioos:station:TCOON:003:1,2017-09-07T20:18:00Z,26.8015,-97.4706,1.167,1111122 
TCOON,ioos:station:TCOON:003:1,2017-09-07T21:18:00Z,26.8015,-97.4706,1.16,1111122 
TCOON,ioos:station:TCOON:003:1,2017-09-07T22:18:00Z,26.8015,-97.4706,1.175,1111122 
TCOON,ioos:station:TCOON:003:1,2017-09-07T23:18:00Z,26.8015,-97.4706,1.179,1111122 
TCOON,ioos:station:TCOON:003:1,2017-09-08T00:18:00Z,26.8015,-97.4706,1.176,1111122 
TCOON,ioos:station:TCOON:003:1,2017-09-08T01:18:00Z,26.8015,-97.4706,1.173,1111122 
TCOON,ioos:station:TCOON:003:1,2017-09-08T02:18:00Z,26.8015,-97.4706,1.172,1111122 
TCOON,ioos:station:TCOON:003:1,2017-09-08T03:18:00Z,26.8015,-97.4706,1.165,1111122 
TCOON,ioos:station:TCOON:003:1,2017-09-08T04:18:00Z,26.8015,-97.4706,1.163,1111122 
TCOON,ioos:station:TCOON:003:1,2017-09-08T05:18:00Z,26.8015,-97.4706,1.17,1111122 
TCOON,ioos:station:TCOON:003:1,2017-09-08T06:18:00Z,26.8015,-97.4706,1.183,1111122 
TCOON,ioos:station:TCOON:003:1,2017-09-08T07:18:00Z,26.8015,-97.4706,1.186,1111122 
TCOON,ioos:station:TCOON:003:1,2017-09-08T08:18:00Z,26.8015,-97.4706,1.182,1111122 
TCOON,ioos:station:TCOON:003:1,2017-09-08T09:18:00Z,26.8015,-97.4706,1.176,1111122 
TCOON,ioos:station:TCOON:003:1,2017-09-08T10:18:00Z,26.8015,-97.4706,1.177,1111122 
TCOON,ioos:station:TCOON:003:1,2017-09-08T11:18:00Z,26.8015,-97.4706,1.173,1111122 
TCOON,ioos:station:TCOON:003:1,2017-09-08T12:18:00Z,26.8015,-97.4706,1.168,1111122 
TCOON,ioos:station:TCOON:003:1,2017-09-08T13:18:00Z,26.8015,-97.4706,1.162,1111122 
TCOON,ioos:station:TCOON:003:1,2017-09-08T14:18:00Z,26.8015,-97.4706,1.166,1111122 
TCOON,ioos:station:TCOON:003:1,2017-09-08T15:18:00Z,26.8015,-97.4706,1.171,1111122 
TCOON,ioos:station:TCOON:003:1,2017-09-08T16:18:00Z,26.8015,-97.4706,1.189,1111122 
TCOON,ioos:station:TCOON:003:1,2017-09-08T17:18:00Z,26.8015,-97.4706,1.214,1111122 
TCOON,ioos:station:TCOON:003:1,2017-09-08T18:18:00Z,26.8015,-97.4706,1.236,1111122 
TCOON,ioos:station:TCOON:003:1,2017-09-08T19:18:00Z,26.8015,-97.4706,1.256,1111122 
TCOON,ioos:station:TCOON:003:1,2017-09-08T20:18:00Z,26.8015,-97.4706,1.25,1111122 
TCOON,ioos:station:TCOON:003:1,2017-09-08T21:18:00Z,26.8015,-97.4706,1.242,1111122 
TCOON,ioos:station:TCOON:003:1,2017-09-08T22:18:00Z,26.8015,-97.4706,1.23,1111122 
TCOON,ioos:station:TCOON:003:1,2017-09-08T23:18:00Z,26.8015,-97.4706,1.257,1111122 
TCOON,ioos:station:TCOON:003:1,2017-09-09T00:18:00Z,26.8015,-97.4706,1.267,1111122 
TCOON,ioos:station:TCOON:003:1,2017-09-09T01:18:00Z,26.8015,-97.4706,1.288,1111122 
TCOON,ioos:station:TCOON:003:1,2017-09-09T02:18:00Z,26.8015,-97.4706,1.281,1111122 
TCOON,ioos:station:TCOON:003:1,2017-09-09T03:18:00Z,26.8015,-97.4706,1.282,1111122 
TCOON,ioos:station:TCOON:003:1,2017-09-09T04:18:00Z,26.8015,-97.4706,1.283,1111122 
TCOON,ioos:station:TCOON:003:1,2017-09-09T05:18:00Z,26.8015,-97.4706,1.283,1111122 
TCOON,ioos:station:TCOON:003:1,2017-09-09T06:18:00Z,26.8015,-97.4706,1.285,1111122 
TCOON,ioos:station:TCOON:003:1,2017-09-09T07:18:00Z,26.8015,-97.4706,1.288,1111122 
TCOON,ioos:station:TCOON:003:1,2017-09-09T08:18:00Z,26.8015,-97.4706,1.286,1111122 
TCOON,ioos:station:TCOON:003:1,2017-09-09T09:18:00Z,26.8015,-97.4706,1.277,1111122 
TCOON,ioos:station:TCOON:003:1,2017-09-09T10:18:00Z,26.8015,-97.4706,1.271,1111122 
TCOON,ioos:station:TCOON:003:1,2017-09-09T11:18:00Z,26.8015,-97.4706,1.279,1111122 
TCOON,ioos:station:TCOON:003:1,2017-09-09T12:18:00Z,26.8015,-97.4706,1.284,1111122 
TCOON,ioos:station:TCOON:003:1,2017-09-09T13:18:00Z,26.8015,-97.4706,1.288,1111122 
TCOON,ioos:station:TCOON:003:1,2017-09-09T14:18:00Z,26.8015,-97.4706,1.295,1111122 
TCOON,ioos:station:TCOON:003:1,2017-09-09T15:18:00Z,26.8015,-97.4706,1.298,1111122 
TCOON,ioos:station:TCOON:003:1,2017-09-09T16:18:00Z,26.8015,-97.4706,1.294,1111122 
TCOON,ioos:station:TCOON:003:1,2017-09-09T17:18:00Z,26.8015,-97.4706,1.288,1111122 
TCOON,ioos:station:TCOON:003:1,2017-09-09T18:18:00Z,26.8015,-97.4706,1.29,1111122 
TCOON,ioos:station:TCOON:003:1,2017-09-09T19:18:00Z,26.8015,-97.4706,1.29,1111122 
TCOON,ioos:station:TCOON:003:1,2017-09-09T20:18:00Z,26.8015,-97.4706,1.289,1111122 
TCOON,ioos:station:TCOON:003:1,2017-09-09T21:18:00Z,26.8015,-97.4706,1.281,1111122 
TCOON,ioos:station:TCOON:003:1,2017-09-09T22:18:00Z,26.8015,-97.4706,1.29,1111122 
TCOON,ioos:station:TCOON:003:1,2017-09-09T23:18:00Z,26.8015,-97.4706,1.293,1111122 
TCOON,ioos:station:TCOON:003:1,2017-09-10T00:18:00Z,26.8015,-97.4706,1.302,1111122 
TCOON,ioos:station:TCOON:003:1,2017-09-10T01:18:00Z,26.8015,-97.4706,1.31,1111122 
TCOON,ioos:station:TCOON:003:1,2017-09-10T02:18:00Z,26.8015,-97.4706,1.316,1111122 
TCOON,ioos:station:TCOON:003:1,2017-09-10T03:18:00Z,26.8015,-97.4706,1.323,1111122 
TCOON,ioos:station:TCOON:003:1,2017-09-10T04:18:00Z,26.8015,-97.4706,1.323,1111122 
TCOON,ioos:station:TCOON:003:1,2017-09-10T05:18:00Z,26.8015,-97.4706,1.32,1111122 
TCOON,ioos:station:TCOON:003:1,2017-09-10T06:18:00Z,26.8015,-97.4706,1.312,1111122 
TCOON,ioos:station:TCOON:003:1,2017-09-10T07:18:00Z,26.8015,-97.4706,1.312,1111122 
TCOON,ioos:station:TCOON:003:1,2017-09-10T08:18:00Z,26.8015,-97.4706,1.31,1111122 
TCOON,ioos:station:TCOON:003:1,2017-09-10T09:18:00Z,26.8015,-97.4706,1.31,1111122 
TCOON,ioos:station:TCOON:003:1,2017-09-10T10:18:00Z,26.8015,-97.4706,1.314,1111122 
TCOON,ioos:station:TCOON:003:1,2017-09-10T11:18:00Z,26.8015,-97.4706,1.314,1111122 
TCOON,ioos:station:TCOON:003:1,2017-09-10T12:18:00Z,26.8015,-97.4706,1.306,1111122 
TCOON,ioos:station:TCOON:003:1,2017-09-10T13:18:00Z,26.8015,-97.4706,1.293,1111122 
TCOON,ioos:station:TCOON:003:1,2017-09-10T14:18:00Z,26.8015,-97.4706,1.279,1111122 
TCOON,ioos:station:TCOON:003:1,2017-09-10T15:18:00Z,26.8015,-97.4706,1.265,1111122 
TCOON,ioos:station:TCOON:003:1,2017-09-10T16:18:00Z,26.8015,-97.4706,1.25,1111122 
TCOON,ioos:station:TCOON:003:1,2017-09-10T17:18:00Z,26.8015,-97.4706,1.25,1111122 
TCOON,ioos:station:TCOON:003:1,2017-09-10T18:18:00Z,26.8015,-97.4706,1.261,1111122 
TCOON,ioos:station:TCOON:003:1,2017-09-10T19:18:00Z,26.8015,-97.4706,1.267,1111122 
TCOON,ioos:station:TCOON:003:1,2017-09-10T20:24:00Z,26.8015,-97.4706,1.261,1111122 
TCOON,ioos:station:TCOON:003:1,2017-09-10T21:18:00Z,26.8015,-97.4706,1.26,1111122 
TCOON,ioos:station:TCOON:003:1,2017-09-10T22:18:00Z,26.8015,-97.4706,1.263,1111122 
TCOON,ioos:station:TCOON:003:1,2017-09-10T23:18:00Z,26.8015,-97.4706,1.257,1111122 
TCOON,ioos:station:TCOON:003:1,2017-09-11T00:18:00Z,26.8015,-97.4706,1.258,1111122 
TCOON,ioos:station:TCOON:003:1,2017-09-11T01:18:00Z,26.8015,-97.4706,1.269,1111122 
TCOON,ioos:station:TCOON:003:1,2017-09-11T02:18:00Z,26.8015,-97.4706,1.293,1111122 
TCOON,ioos:station:TCOON:003:1,2017-09-11T03:18:00Z,26.8015,-97.4706,1.316,1111122 
TCOON,ioos:station:TCOON:003:1,2017-09-11T04:18:00Z,26.8015,-97.4706,1.32,1111122 
TCOON,ioos:station:TCOON:003:1,2017-09-11T05:18:00Z,26.8015,-97.4706,1.314,1111122 
TCOON,ioos:station:TCOON:003:1,2017-09-11T06:18:00Z,26.8015,-97.4706,1.315,1111122 
TCOON,ioos:station:TCOON:003:1,2017-09-11T07:18:00Z,26.8015,-97.4706,1.319,1111122 
TCOON,ioos:station:TCOON:003:1,2017-09-11T08:18:00Z,26.8015,-97.4706,1.31,1111122 
TCOON,ioos:station:TCOON:003:1,2017-09-11T09:18:00Z,26.8015,-97.4706,1.318,1111122 
TCOON,ioos:station:TCOON:003:1,2017-09-11T10:18:00Z,26.8015,-97.4706,1.308,1111122 
TCOON,ioos:station:TCOON:003:1,2017-09-11T11:18:00Z,26.8015,-97.4706,1.292,1111122 
TCOON,ioos:station:TCOON:003:1,2017-09-11T12:18:00Z,26.8015,-97.4706,1.277,1111122 
TCOON,ioos:station:TCOON:003:1,2017-09-11T13:18:00Z,26.8015,-97.4706,1.278,1111122 
TCOON,ioos:station:TCOON:003:1,2017-09-11T14:18:00Z,26.8015,-97.4706,1.28,1111122 
TCOON,ioos:station:TCOON:003:1,2017-09-11T15:18:00Z,26.8015,-97.4706,1.279,1111122 
TCOON,ioos:station:TCOON:003:1,2017-09-11T16:18:00Z,26.8015,-97.4706,1.282,1111122 
TCOON,ioos:station:TCOON:003:1,2017-09-11T17:18:00Z,26.8015,-97.4706,1.276,1111122 
TCOON,ioos:station:TCOON:003:1,2017-09-11T18:18:00Z,26.8015,-97.4706,1.277,1111122 
TCOON,ioos:station:TCOON:003:1,2017-09-11T19:18:00Z,26.8015,-97.4706,1.274,1111122 
TCOON,ioos:station:TCOON:003:1,2017-09-11T20:18:00Z,26.8015,-97.4706,1.264,1111122 
TCOON,ioos:station:TCOON:003:1,2017-09-11T21:18:00Z,26.8015,-97.4706,1.255,1111122 
TCOON,ioos:station:TCOON:003:1,2017-09-11T22:18:00Z,26.8015,-97.4706,1.26,1111122 
TCOON,ioos:station:TCOON:003:1,2017-09-11T23:18:00Z,26.8015,-97.4706,1.264,1111122 
TCOON,ioos:station:TCOON:003:1,2017-09-12T00:18:00Z,26.8015,-97.4706,1.277,1111122 
TCOON,ioos:station:TCOON:003:1,2017-09-12T01:18:00Z,26.8015,-97.4706,1.302,1111122 
TCOON,ioos:station:TCOON:003:1,2017-09-12T02:18:00Z,26.8015,-97.4706,1.321,1111122 
TCOON,ioos:station:TCOON:003:1,2017-09-12T03:18:00Z,26.8015,-97.4706,1.33,1111122 
TCOON,ioos:station:TCOON:003:1,2017-09-12T04:18:00Z,26.8015,-97.4706,1.335,1111122 
TCOON,ioos:station:TCOON:003:1,2017-09-12T05:18:00Z,26.8015,-97.4706,1.339,1111122 
TCOON,ioos:station:TCOON:003:1,2017-09-12T06:18:00Z,26.8015,-97.4706,1.344,1111122 
TCOON,ioos:station:TCOON:003:1,2017-09-12T07:18:00Z,26.8015,-97.4706,1.348,1111122 
TCOON,ioos:station:TCOON:003:1,2017-09-12T08:18:00Z,26.8015,-97.4706,1.349,1111122 
TCOON,ioos:station:TCOON:003:1,2017-09-12T09:18:00Z,26.8015,-97.4706,1.346,1111122 
TCOON,ioos:station:TCOON:003:1,2017-09-12T10:18:00Z,26.8015,-97.4706,1.339,1111122 
TCOON,ioos:station:TCOON:003:1,2017-09-12T11:18:00Z,26.8015,-97.4706,1.336,1111122 
TCOON,ioos:station:TCOON:003:1,2017-09-12T12:18:00Z,26.8015,-97.4706,1.323,1111122 
TCOON,ioos:station:TCOON:003:1,2017-09-12T13:18:00Z,26.8015,-97.4706,1.332,1111122 
TCOON,ioos:station:TCOON:003:1,2017-09-12T14:18:00Z,26.8015,-97.4706,1.329,1111122 
TCOON,ioos:station:TCOON:003:1,2017-09-12T15:18:00Z,26.8015,-97.4706,1.329,1111122 
TCOON,ioos:station:TCOON:003:1,2017-09-12T16:18:00Z,26.8015,-97.4706,1.343,1111122 
TCOON,ioos:station:TCOON:003:1,2017-09-12T17:18:00Z,26.8015,-97.4706,1.362,1111122 
TCOON,ioos:station:TCOON:003:1,2017-09-12T18:18:00Z,26.8015,-97.4706,1.356,1111122 
TCOON,ioos:station:TCOON:003:1,2017-09-12T19:18:00Z,26.8015,-97.4706,1.348,1111122 
TCOON,ioos:station:TCOON:003:1,2017-09-12T20:18:00Z,26.8015,-97.4706,1.355,1111122 
TCOON,ioos:station:TCOON:003:1,2017-09-12T21:18:00Z,26.8015,-97.4706,1.373,1111122 
TCOON,ioos:station:TCOON:003:1,2017-09-12T22:18:00Z,26.8015,-97.4706,1.393,1111122 
TCOON,ioos:station:TCOON:003:1,2017-09-12T23:18:00Z,26.8015,-97.4706,1.401,1111122 
TCOON,ioos:station:TCOON:003:1,2017-09-13T00:18:00Z,26.8015,-97.4706,1.416,1111122 
TCOON,ioos:station:TCOON:003:1,2017-09-13T01:18:00Z,26.8015,-97.4706,1.413,1111122 
TCOON,ioos:station:TCOON:003:1,2017-09-13T02:18:00Z,26.8015,-97.4706,1.418,1111122 
TCOON,ioos:station:TCOON:003:1,2017-09-13T03:18:00Z,26.8015,-97.4706,1.412,1111122 
TCOON,ioos:station:TCOON:003:1,2017-09-13T04:18:00Z,26.8015,-97.4706,1.421,1111122 
TCOON,ioos:station:TCOON:003:1,2017-09-13T05:18:00Z,26.8015,-97.4706,1.415,1111122 
TCOON,ioos:station:TCOON:003:1,2017-09-13T06:18:00Z,26.8015,-97.4706,1.383,1111122 
TCOON,ioos:station:TCOON:003:1,2017-09-13T07:18:00Z,26.8015,-97.4706,1.402,1111122 
TCOON,ioos:station:TCOON:003:1,2017-09-13T08:18:00Z,26.8015,-97.4706,1.404,1111122 
TCOON,ioos:station:TCOON:003:1,2017-09-13T09:18:00Z,26.8015,-97.4706,1.405,1111122 
TCOON,ioos:station:TCOON:003:1,2017-09-13T10:18:00Z,26.8015,-97.4706,1.405,1111122 
TCOON,ioos:station:TCOON:003:1,2017-09-13T11:18:00Z,26.8015,-97.4706,1.406,1111122 
TCOON,ioos:station:TCOON:003:1,2017-09-13T12:18:00Z,26.8015,-97.4706,1.405,1111122 
TCOON,ioos:station:TCOON:003:1,2017-09-13T13:18:00Z,26.8015,-97.4706,1.406,1111122 
TCOON,ioos:station:TCOON:003:1,2017-09-13T14:18:00Z,26.8015,-97.4706,1.409,1111122 
TCOON,ioos:station:TCOON:003:1,2017-09-13T15:18:00Z,26.8015,-97.4706,1.417,1111122 
TCOON,ioos:station:TCOON:003:1,2017-09-13T16:18:00Z,26.8015,-97.4706,1.414,1111122 
TCOON,ioos:station:TCOON:003:1,2017-09-13T17:18:00Z,26.8015,-97.4706,1.411,1111122 
TCOON,ioos:station:TCOON:003:1,2017-09-13T18:18:00Z,26.8015,-97.4706,1.413,1111122 
TCOON,ioos:station:TCOON:003:1,2017-09-13T19:18:00Z,26.8015,-97.4706,1.41,1111122 
TCOON,ioos:station:TCOON:003:1,2017-09-13T20:18:00Z,26.8015,-97.4706,1.408,1111122 
TCOON,ioos:station:TCOON:003:1,2017-09-13T21:18:00Z,26.8015,-97.4706,1.419,1111122 
TCOON,ioos:station:TCOON:003:1,2017-09-13T22:18:00Z,26.8015,-97.4706,1.438,1111122 
TCOON,ioos:station:TCOON:003:1,2017-09-13T23:18:00Z,26.8015,-97.4706,1.46,1111122 
TCOON,ioos:station:TCOON:003:1,2017-09-14T00:18:00Z,26.8015,-97.4706,1.472,1111122 
TCOON,ioos:station:TCOON:003:1,2017-09-14T01:18:00Z,26.8015,-97.4706,1.471,1111122 
TCOON,ioos:station:TCOON:003:1,2017-09-14T02:18:00Z,26.8015,-97.4706,1.464,1111122 
TCOON,ioos:station:TCOON:003:1,2017-09-14T03:18:00Z,26.8015,-97.4706,1.466,1111122 
TCOON,ioos:station:TCOON:003:1,2017-09-14T04:18:00Z,26.8015,-97.4706,1.464,1111122 
TCOON,ioos:station:TCOON:003:1,2017-09-14T05:18:00Z,26.8015,-97.4706,1.467,1111122 
TCOON,ioos:station:TCOON:003:1,2017-09-14T06:18:00Z,26.8015,-97.4706,1.479,1111122 
TCOON,ioos:station:TCOON:003:1,2017-09-14T07:18:00Z,26.8015,-97.4706,1.477,1111122 
TCOON,ioos:station:TCOON:003:1,2017-09-14T08:18:00Z,26.8015,-97.4706,1.472,1111122 
TCOON,ioos:station:TCOON:003:1,2017-09-14T09:18:00Z,26.8015,-97.4706,1.47,1111122 
TCOON,ioos:station:TCOON:003:1,2017-09-14T10:18:00Z,26.8015,-97.4706,1.458,1111122 